Winona, MN

12:19 PM CST on February 20, 2018 (GMT -0600)
Winona Municipal-Conrad

Weather History for KONA - December, 2012

Change the Weather History Date:

Wednesday, December 26, 2012

  Actual Average Record
Temperature  
Mean Temperature 10 °F -  
Max Temperature 19 °F 24 °F 46 °F (2008)
Min Temperature 1 °F 8 °F -14 °F (1996)
Degree Days  
Heating Degree Days 55    
Moisture  
Dew Point 4 °F    
Average Humidity 77    
Maximum Humidity 85    
Minimum Humidity 63    
Precipitation  
Precipitation 0.00 in - - ()
Sea Level Pressure  
Sea Level Pressure 30.30 in    
Wind  
Wind Speed 4 mph (NW)    
Max Wind Speed 9 mph    
Max Gust Speed -    
Visibility 10 miles    
Events      
Averages and records for this station are not official NWS values.
T = Trace of Precipitation, MM = Missing Value Source: NWS Daily Summary

Daily Weather History Graph

Daily Weather History Graph

Search for Another Location

Airport or City:

Trip Planner

Search our weather history database for the weather conditions in past years. The results will help you decide how hot, cold, wet, or windy it might be!

Date:

Astronomy

Dec. 26, 2012 Rise Set
Actual Time 7:40 AM CST 4:34 PM CST
Civil Twilight 7:07 AM CST 5:07 PM CST
Nautical Twilight 6:31 AM CST 5:44 PM CST
Astronomical Twilight 5:55 AM CST 6:19 PM CST
Moon 3:29 PM CST (12/26) 6:03 AM CST (12/26)
Length of Visible Light 10h 00m
Length of Day
8h 53m
Waxing Gibbous, 97% of the Moon is Illuminated
Dec 26
Waxing Gibbous
Dec 28
Full
Jan 4
Last Quarter
Jan 11
New
Jan 18
First Quarter

Hourly Weather History & Observations

Time (CST) Temp. Windchill Dew Point Humidity Pressure Visibility Wind Dir Wind Speed Gust Speed Precip Events Conditions
12:13 AM 5.0 °F -2.1 °F -0.4 °F 78% 30.39 in 10.0 mi NNW 3.5 mph - N/A   Clear
12:33 AM 5.0 °F -2.1 °F 1.4 °F 85% 30.39 in 10.0 mi NW 3.5 mph - N/A   Clear
12:54 AM 5.0 °F -2.1 °F 1.4 °F 85% 30.39 in 10.0 mi WNW 3.5 mph - N/A   Clear
1:13 AM 5.0 °F -2.1 °F 1.4 °F 85% 30.38 in 10.0 mi WNW 3.5 mph - N/A   Clear
1:33 AM 5.0 °F -2.1 °F 1.4 °F 85% 30.38 in 10.0 mi WNW 3.5 mph - N/A   Clear
1:53 AM 3.2 °F -7.8 °F -0.4 °F 85% 30.39 in 10.0 mi NW 5.8 mph - N/A   Clear
2:13 AM 1.4 °F -8.3 °F -2.2 °F 85% 30.39 in 10.0 mi NNW 4.6 mph - N/A   Clear
2:34 AM 3.2 °F -4.2 °F -0.4 °F 85% 30.39 in 10.0 mi WNW 3.5 mph - N/A   Clear
2:53 AM 1.4 °F -8.3 °F -4.0 °F 78% 30.38 in 10.0 mi NW 4.6 mph - N/A   Clear
3:13 AM 1.4 °F -8.3 °F -2.2 °F 85% 30.38 in 10.0 mi NNW 4.6 mph - N/A   Clear
3:34 AM 1.4 °F -6.2 °F -4.0 °F 78% 30.37 in 10.0 mi NNW 3.5 mph - N/A   Clear
3:53 AM 1.4 °F - -2.2 °F 85% 30.37 in 10.0 mi Calm Calm - N/A   Clear
4:13 AM 1.4 °F -8.3 °F -4.0 °F 78% 30.36 in 10.0 mi NW 4.6 mph - N/A   Clear
4:34 AM 1.4 °F - -2.2 °F 85% 30.36 in 10.0 mi Calm Calm - N/A   Clear
4:53 AM 1.4 °F -9.9 °F -2.2 °F 85% 30.36 in 10.0 mi NW 5.8 mph - N/A   Clear
5:13 AM 1.4 °F -9.9 °F -4.0 °F 78% 30.36 in 10.0 mi NW 5.8 mph - N/A   Clear
5:34 AM 1.4 °F -8.3 °F -4.0 °F 78% 30.34 in 10.0 mi NW 4.6 mph - N/A   Clear
5:53 AM 1.4 °F -8.3 °F -4.0 °F 78% 30.34 in 10.0 mi WNW 4.6 mph - N/A   Clear
6:13 AM 3.2 °F -4.2 °F -0.4 °F 85% 30.33 in 10.0 mi WNW 3.5 mph - N/A   Clear
6:34 AM 3.2 °F -6.2 °F -0.4 °F 85% 30.33 in 10.0 mi NW 4.6 mph - N/A   Clear
6:53 AM 5.0 °F -4.1 °F 1.4 °F 85% 30.32 in 10.0 mi NW 4.6 mph - N/A   Scattered Clouds
7:14 AM 5.0 °F -2.1 °F 1.4 °F 85% 30.31 in 10.0 mi WNW 3.5 mph - N/A   Mostly Cloudy
7:34 AM 5.0 °F -4.1 °F 1.4 °F 85% 30.30 in 10.0 mi NW 4.6 mph - N/A   Overcast
7:53 AM 5.0 °F -4.1 °F 1.4 °F 85% 30.30 in 10.0 mi WNW 4.6 mph - N/A   Overcast
8:14 AM 5.0 °F -5.6 °F 1.4 °F 85% 30.30 in 7.0 mi NW 5.8 mph - N/A   Overcast
8:34 AM 8.6 °F 0.1 °F 3.2 °F 79% 30.30 in 10.0 mi NW 4.6 mph - N/A   Mostly Cloudy
8:53 AM 8.6 °F 2.0 °F 3.2 °F 79% 30.31 in 10.0 mi NW 3.5 mph - N/A   Scattered Clouds
9:14 AM 8.6 °F 2.0 °F 3.2 °F 79% 30.32 in 10.0 mi NNW 3.5 mph - N/A   Clear
9:34 AM 10.4 °F -0.4 °F 3.2 °F 73% 30.32 in 10.0 mi NW 6.9 mph - N/A   Scattered Clouds
9:53 AM 10.4 °F -1.5 °F 3.2 °F 73% 30.33 in 10.0 mi NW 8.1 mph - N/A   Mostly Cloudy
10:14 AM 10.4 °F -0.4 °F 3.2 °F 73% 30.32 in 10.0 mi NNW 6.9 mph - N/A   Mostly Cloudy
10:34 AM 14.0 °F 3.9 °F 5.0 °F 67% 30.31 in 10.0 mi NW 6.9 mph - N/A   Overcast
10:53 AM 14.0 °F 6.5 °F 5.0 °F 67% 30.31 in 10.0 mi NW 4.6 mph - N/A   Overcast
11:14 AM 14.0 °F 5.1 °F 5.0 °F 67% 30.30 in 10.0 mi NW 5.8 mph - N/A   Scattered Clouds
11:34 AM 15.8 °F 8.6 °F 6.8 °F 68% 30.29 in 10.0 mi NW 4.6 mph - N/A   Scattered Clouds
11:54 AM 15.8 °F 7.2 °F 6.8 °F 68% 30.29 in 10.0 mi NW 5.8 mph - N/A   Clear
12:13 PM 15.8 °F 8.6 °F 6.8 °F 68% 30.27 in 10.0 mi WNW 4.6 mph - N/A   Clear
12:33 PM 17.6 °F 8.2 °F 6.8 °F 63% 30.27 in 10.0 mi NNW 6.9 mph - N/A   Scattered Clouds
12:54 PM 19.4 °F 10.4 °F 8.6 °F 63% 30.26 in 10.0 mi NW 6.9 mph - N/A   Mostly Cloudy
1:13 PM 19.4 °F 8.6 °F 8.6 °F 63% 30.26 in 10.0 mi NW 9.2 mph - N/A   Mostly Cloudy
1:33 PM 19.4 °F 8.6 °F 8.6 °F 63% 30.25 in 10.0 mi NW 9.2 mph - N/A   Scattered Clouds
1:54 PM 19.4 °F 10.4 °F 8.6 °F 63% 30.25 in 10.0 mi NW 6.9 mph - N/A   Clear
2:13 PM 19.4 °F 11.5 °F 8.6 °F 63% 30.25 in 10.0 mi NW 5.8 mph - N/A   Clear
2:33 PM 19.4 °F 10.4 °F 8.6 °F 63% 30.25 in 10.0 mi NW 6.9 mph - N/A   Clear
2:54 PM 19.4 °F 10.4 °F 8.6 °F 63% 30.25 in 10.0 mi NW 6.9 mph - N/A   Clear
3:13 PM 19.4 °F 11.5 °F 8.6 °F 63% 30.26 in 10.0 mi NW 5.8 mph - N/A   Clear
3:33 PM 19.4 °F 12.8 °F 8.6 °F 63% 30.25 in 10.0 mi NW 4.6 mph - N/A   Clear
3:54 PM 19.4 °F 12.8 °F 8.6 °F 63% 30.25 in 10.0 mi WNW 4.6 mph - N/A   Clear
4:13 PM 19.4 °F 11.5 °F 8.6 °F 63% 30.25 in 10.0 mi NW 5.8 mph - N/A   Clear
4:34 PM 15.8 °F 6.1 °F 8.6 °F 73% 30.25 in 10.0 mi NW 6.9 mph - N/A   Clear
4:54 PM 19.4 °F 12.8 °F 10.4 °F 68% 30.25 in 10.0 mi NW 4.6 mph - N/A   Clear
5:13 PM 15.8 °F 7.2 °F 8.6 °F 73% 30.25 in 10.0 mi NW 5.8 mph - N/A   Clear
5:34 PM 14.0 °F 6.5 °F 6.8 °F 73% 30.25 in 10.0 mi NNW 4.6 mph - N/A   Clear
5:54 PM 15.8 °F - 8.6 °F 73% 30.25 in 10.0 mi Calm Calm - N/A   Clear
6:13 PM 15.8 °F 10.2 °F 10.4 °F 79% 30.25 in 10.0 mi NNW 3.5 mph - N/A   Clear
6:34 PM 14.0 °F 8.2 °F 8.6 °F 79% 30.25 in 10.0 mi WNW 3.5 mph - N/A   Clear
6:54 PM 12.2 °F 6.1 °F 8.6 °F 85% 30.25 in 10.0 mi NW 3.5 mph - N/A   Clear
7:13 PM 14.0 °F 6.5 °F 8.6 °F 79% 30.26 in 10.0 mi NW 4.6 mph - N/A   Clear
7:34 PM 12.2 °F 4.3 °F 8.6 °F 85% 30.26 in 10.0 mi NW 4.6 mph - N/A   Clear
7:54 PM 8.6 °F -1.3 °F 3.2 °F 79% 30.26 in 10.0 mi NNW 5.8 mph - N/A   Clear
8:13 PM 10.4 °F - 5.0 °F 79% 30.27 in 10.0 mi Calm Calm - N/A   Clear
8:34 PM 10.4 °F 4.0 °F 5.0 °F 79% 30.26 in 10.0 mi SW 3.5 mph - N/A   Clear
8:54 PM 8.6 °F - 5.0 °F 85% 30.26 in 10.0 mi Calm Calm - N/A   Clear
9:13 PM 8.6 °F - 5.0 °F 85% 30.26 in 10.0 mi Calm Calm - N/A   Clear
9:34 PM 8.6 °F 2.0 °F 5.0 °F 85% 30.26 in 10.0 mi NNW 3.5 mph - N/A   Clear
9:54 PM 8.6 °F - 5.0 °F 85% 30.26 in 10.0 mi Calm Calm - N/A   Clear
10:13 PM 8.6 °F - 5.0 °F 85% 30.26 in 10.0 mi Calm Calm - N/A   Clear
10:33 PM 8.6 °F - 5.0 °F 85% 30.26 in 10.0 mi Calm Calm - N/A   Clear
10:54 PM 5.0 °F - 1.4 °F 85% 30.25 in 10.0 mi Calm Calm - N/A   Clear
11:13 PM 5.0 °F - 1.4 °F 85% 30.25 in 10.0 mi Calm Calm - N/A   Clear
11:33 PM 5.0 °F - 1.4 °F 85% 30.25 in 10.0 mi Calm Calm - N/A   Clear
11:54 PM 3.2 °F - -0.4 °F 85% 30.24 in 10.0 mi Calm Calm - N/A   Clear